User: anonymous   Login
Location: Churchill
(58.7670°N, 94.1670°W)
Time: 01:58:22
(UTC-05:00)
Language:

Cosmos 1315 Rocket - Orbit

View from above orbital plane
View from above orbital plane
View from above satellite
View from above satellite

Ground track
Ground track

The orbit data is extracted from the following two-line orbital elements,

1 12904U 81103B   17118.92104026 +.00000550 +00000-0 +36623-4 0  9995
2 12904 081.1760 331.8332 0027427 225.8539 134.0429 15.05249312485192
Epoch (UTC): 28 April 2017 22:06:17
Eccentricity: 0.0027427
inclination: 81.1760°
perigee height: 532 km
apogee height: 570 km
right ascension of ascending node: 331.8332°
argument of perigee: 225.8539°
revolutions per day: 15.05249312
mean anomaly at epoch: 134.0429°
orbit number at epoch: 48519

The dashed part of the orbit path shows where the satellite is in the earth's shadow,  

DLR